Wetbulb
60.10 59.91 59.86 60.02 59.85 59.38 59.52 59.51 59.35 58.93 58.32 57.15 56.92 56.42 56.42 56.41 55.58 51.36 43.71 49.56 53.52 55.63 56.19 50.52 49.42 46.38 47.02 45.84 48.54 49.37 40.43 37.71 39.84 40.91 42.92 46.67 45.35 47.27 45.21 46.27 46.54 46.32 44.66 45.62 46.81
57.95 57.80 57.94 58.22 58.51 58.62 59.44 59.55 59.48 59.35 58.60 57.77 56.79 56.37 56.26 56.02 50.45 46.91 53.85 55.89 56.01 55.69 49.94 47.49 44.92 44.48 41.99 44.44 46.24 44.52 40.12 41.38 44.95 43.11 41.09 44.23 45.07 43.54 42.80 42.99 43.14 41.49 44.01 45.62 46.20
56.47 56.20 56.16 55.95 56.47 56.85 57.04 57.62 58.83 59.29 59.05 58.17 56.72 56.24 56.00 54.29 44.54 45.23 55.11 54.82 55.03 54.89 51.42 50.08 46.96 44.38 41.67 43.10 44.15 44.43 40.11 45.39 43.36 42.73 42.75 42.70 42.00 43.69 40.89 39.57 44.03 41.22 41.91 43.85 43.62
54.86 54.82 54.55 54.71 55.11 55.68 56.13 56.49 57.23 58.36 58.74 57.84 56.45 55.98 56.14 49.55 32.85 45.72 52.69 53.20 54.16 52.41 49.82 47.27 43.70 39.63 40.15 39.80 44.67 40.68 45.12 46.45 46.12 43.08 42.08 39.95 40.50 38.56 40.42 41.71 41.11 40.06 43.24 42.31 41.97
52.85 52.79 53.09 53.15 53.87 54.55 55.14 55.73 56.47 57.64 58.30 56.28 55.45 55.39 50.28 40.56 40.01 48.17 52.53 51.21 50.37 49.76 47.58 45.14 40.52 40.14 38.68 40.54 42.28 42.00 43.89 45.14 42.46 41.07 39.57 40.95 37.57 37.31 37.59 40.72 40.37 41.69 42.17 40.54 40.40
50.67 50.58 50.93 51.53 52.42 53.34 53.98 54.53 55.36 56.26 57.30 55.19 54.68 55.12 44.57 33.67 45.50 47.37 48.08 47.84 48.42 47.60 46.26 45.72 42.37 43.88 40.61 39.57 40.01 39.30 40.92 42.01 42.58 40.30 40.01 37.78 35.65 35.52 37.38 40.57 39.21 39.76 39.51 39.30 39.57
49.07 49.06 49.34 49.87 50.93 51.71 52.40 53.16 54.12 55.13 56.10 54.88 54.88 52.44 42.55 38.77 45.40 46.46 47.49 46.15 47.67 47.75 45.38 45.77 45.82 42.43 41.44 38.17 40.49 39.66 35.36 36.68 38.40 38.43 36.64 36.70 32.53 32.85 37.46 38.35 38.54 37.83 36.85 38.37 39.17
48.27 48.50 48.76 49.07 49.47 49.97 50.86 51.87 52.94 54.31 54.79 54.80 55.58 48.42 35.62 44.40 43.09 46.17 46.16 45.58 46.66 48.18 46.69 47.63 46.10 43.28 40.88 40.87 38.34 34.64 33.45 28.18 35.61 37.00 35.82 34.60 28.22 34.89 36.39 36.59 36.22 36.30 34.99 37.11 38.53
48.95 48.81 49.26 49.39 49.30 49.52 49.89 50.61 52.59 54.96 53.62 55.39 48.25 41.57 34.61 47.40 41.16 44.35 44.91 44.02 44.98 45.89 46.14 46.33 44.48 40.09 38.70 33.52 29.70 30.97 24.26 27.54 31.96 36.60 34.22 32.44 28.66 34.20 35.48 35.15 34.54 34.14 34.52 35.99 36.89
49.06 49.02 48.55 48.95 49.54 50.02 50.27 51.11 52.21 50.82 51.69 51.94 48.44 35.05 38.87 37.11 41.46 43.18 43.52 45.84 43.72 41.57 41.25 40.31 38.13 34.06 32.10 29.56 23.81 25.97 25.73 29.58 29.70 33.10 32.39 29.66 29.41 33.10 34.08 34.49 33.76 33.41 33.82 34.71 36.39
47.47 47.67 47.72 48.15 49.36 50.98 48.67 45.75 42.10 40.92 42.88 37.82 38.92 37.53 39.50 41.10 42.65 40.73 43.51 42.76 43.20 39.99 33.27 36.64 30.60 27.65 30.91 31.98 33.12 31.40 28.44 25.90 28.65 32.92 31.08 29.42 30.01 32.17 33.13 33.22 32.81 32.48 33.47 33.94 35.98
46.19 46.59 47.05 47.58 48.61 51.94 47.98 41.79 41.40 41.07 34.50 42.92 43.30 44.36 44.43 41.44 36.43 39.30 43.32 36.81 37.15 32.60 34.81 31.68 28.08 33.83 35.77 35.35 33.66 31.74 28.54 27.92 29.74 31.90 28.84 27.64 28.55 31.69 32.81 34.22 35.01 33.96 33.37 34.15 35.23
45.12 45.40 45.64 46.71 48.91 45.62 44.52 42.47 46.99 46.53 35.71 40.88 43.38 42.79 39.73 40.65 36.42 36.31 40.05 37.37 34.17 32.06 32.56 27.93 32.90 36.62 34.68 32.05 31.54 30.16 28.27 27.89 27.78 29.95 29.67 26.37 26.44 30.66 34.22 34.34 33.89 35.42 36.68 36.09 36.87
45.53 45.45 45.26 45.48 41.19 41.21 43.15 46.98 47.78 44.81 32.13 33.87 38.09 38.85 40.24 40.47 34.08 40.32 41.27 36.84 34.52 30.98 33.03 31.27 35.39 33.71 31.50 31.08 31.52 26.12 31.61 31.60 29.92 25.88 20.42 28.13 19.29 27.63 32.24 33.01 33.81 34.57 33.56 34.69 37.09
45.76 45.69 45.40 44.89 39.93 36.51 42.54 45.08 46.14 42.91 5.36 33.53 35.42 43.63 41.64 36.75 35.56 35.37 39.45 36.15 30.91 31.72 31.68 29.33 30.71 30.00 29.58 31.14 33.08 28.49 32.16 30.20 28.67 24.28 23.76 23.00 18.15 26.29 31.35 31.70 32.52 33.00 34.10 34.54 35.01
45.24 45.24 45.24 39.57 38.44 41.04 44.04 43.62 43.01 20.64 6.34 27.30 34.72 34.34 34.38 36.28 35.84 36.15 34.88 36.60 34.76 31.65 31.13 28.69 33.37 32.73 31.73 32.18 32.60 33.15 30.20 29.40 28.24 25.55 12.28 23.00 22.12 23.27 30.12 32.56 31.14 33.20 34.11 34.70 35.87
45.00 45.29 42.00 41.49 35.67 42.15 42.24 42.48 25.06 12.66 27.27 24.37 27.93 33.73 32.83 32.15 33.10 32.90 30.68 28.10 25.27 22.99 22.57 26.52 27.91 31.32 33.67 28.52 31.75 30.89 26.25 16.64 13.27 8.06 11.51 24.72 22.16 25.59 31.84 33.07 34.05 33.72 33.63 34.20 37.32
44.83 44.10 40.81 42.13 42.11 43.13 39.77 35.56 16.83 11.25 17.94 33.16 30.41 31.50 28.10 32.60 32.16 31.80 28.34 24.71 29.78 25.87 21.44 21.42 19.11 27.15 31.74 29.93 26.39 26.85 26.60 19.54 10.56 13.83 18.26 23.24 20.16 27.85 32.53 33.41 34.73 35.61 35.11 35.62 35.87
44.02 36.42 35.61 43.74 44.82 44.13 38.30 24.27 15.14 18.98 27.18 30.94 29.19 20.62 19.03 29.01 30.33 29.95 27.61 26.35 29.94 30.30 22.94 21.70 22.51 28.04 30.52 32.24 31.55 26.85 22.23 27.67 18.08 11.29 12.48 20.11 25.00 31.31 31.65 30.91 31.81 33.40 34.35 34.60 35.50
34.22 32.18 38.36 42.79 43.51 39.87 31.84 20.97 20.10 35.02 34.34 32.35 28.35 21.79 10.55 17.77 23.41 25.43 26.34 30.81 31.30 32.84 34.49 31.57 22.99 26.50 28.78 31.55 30.88 28.08 29.19 22.12 18.88 9.67 8.29 18.95 22.94 25.83 27.61 29.88 30.85 31.10 32.23 33.62 35.45
31.16 25.10 35.85 38.01 40.18 33.16 24.52 17.85 27.69 35.20 34.72 31.65 28.32 25.03 29.38 23.70 23.65 21.45 24.97 31.70 33.54 31.60 34.20 32.72 30.27 23.37 27.41 23.78 23.39 23.89 25.13 25.37 25.19 22.63 13.45 13.22 22.45 30.34 31.90 32.09 29.82 30.71 31.68 33.11 34.64
29.18 15.00 33.57 35.93 19.42 22.55 24.06 26.64 32.49 31.21 33.10 32.58 34.01 31.39 31.44 30.53 23.85 27.41 25.87 32.25 33.86 33.34 27.54 31.43 29.43 24.45 22.43 29.15 30.30 28.74 26.01 26.88 24.15 20.72 18.49 18.11 21.70 30.34 31.30 34.04 32.88 31.04 32.05 32.72 34.23
21.33 22.97 33.36 33.84 8.92 6.42 18.51 25.36 27.54 26.14 24.60 27.41 28.91 32.59 33.85 29.52 25.65 26.14 30.24 33.83 33.81 32.13 28.28 29.01 22.13 16.74 21.82 24.17 25.95 23.12 25.24 27.11 26.80 23.42 18.42 14.80 20.91 31.80 31.86 31.95 32.36 30.72 31.20 32.64 33.64
27.09 18.01 20.01 26.83 23.67 19.83 15.21 16.61 19.37 26.75 25.78 26.82 25.64 29.38 24.05 25.13 29.23 29.44 29.38 32.62 33.68 32.29 34.94 34.03 25.40 21.25 20.11 23.00 22.71 20.22 23.54 26.65 25.54 13.83 17.93 22.12 19.75 29.71 30.11 29.82 30.58 30.78 31.21 31.37 31.26
30.02 20.96 18.82 8.24 12.02 18.11 20.37 21.06 19.47 13.87 25.66 26.34 22.78 22.64 20.11 20.06 20.92 21.56 26.28 28.51 32.41 33.29 31.16 31.50 23.88 24.28 24.21 25.74 24.51 24.32 22.82 23.60 22.45 22.80 19.90 21.39 24.28 29.64 30.08 31.60 29.58 28.55 29.88 29.26 30.39
25.38 24.51 24.32 13.33 20.75 20.28 20.12 13.43 18.73 17.66 21.35 20.69 19.36 21.61 23.68 18.96 19.75 18.18 20.85 22.76 25.70 25.82 26.37 28.07 24.46 24.61 17.61 25.71 27.76 27.26 27.05 23.30 24.17 24.29 24.14 22.67 21.94 29.59 34.16 34.24 31.41 30.10 28.37 30.48 30.25
33.46 33.72 28.93 23.78 20.42 19.81 18.35 17.82 19.49 21.41 22.40 23.93 20.69 19.68 20.75 22.96 25.86 26.21 26.84 26.23 24.98 23.20 26.92 24.84 22.63 18.30 13.77 24.21 24.46 21.07 24.74 26.13 26.24 21.09 23.72 18.95 26.88 31.24 30.36 30.13 31.57 29.45 30.12 30.70 30.34
MSLP
1018.73 1018.41 1018.20 1017.91 1017.66 1017.24 1016.78 1016.48 1016.16 1015.88 1015.68 1015.42 1015.13 1014.94 1014.69 1014.41 1014.11 1013.76 1013.51 1012.70 1012.70 1012.76 1012.80 1012.89 1012.91 1012.88 1012.91 1012.89 1012.55 1012.47 1013.14 1012.81 1012.21 1011.50 1010.32 1009.44 1009.09 1008.92 1009.15 1009.52 1009.82 1010.36 1011.07 1011.07 1011.83
1019.21 1018.73 1018.33 1018.13 1017.69 1017.26 1016.78 1016.29 1015.94 1015.64 1015.33 1015.11 1014.87 1014.69 1014.52 1014.31 1014.04 1013.20 1012.29 1012.34 1012.50 1012.75 1012.91 1012.95 1012.92 1012.89 1013.05 1012.64 1012.44 1012.49 1012.50 1012.10 1011.34 1010.96 1010.49 1009.99 1009.51 1009.60 1009.77 1010.12 1010.67 1011.35 1011.62 1011.66 1011.96
1019.52 1019.08 1018.63 1018.36 1017.96 1017.42 1016.94 1016.39 1015.88 1015.48 1015.08 1014.84 1014.57 1014.40 1014.32 1014.25 1013.93 1012.42 1012.18 1012.31 1012.47 1012.64 1012.86 1012.94 1012.74 1012.79 1013.00 1012.47 1012.18 1011.90 1011.85 1011.74 1011.41 1011.09 1010.87 1010.61 1010.17 1010.07 1010.37 1010.78 1010.87 1011.32 1011.86 1012.02 1012.27
1019.78 1019.36 1018.87 1018.44 1017.99 1017.47 1016.94 1016.40 1015.78 1015.22 1014.75 1014.41 1014.20 1014.14 1014.05 1014.24 1013.64 1012.24 1012.13 1012.23 1012.35 1012.59 1012.91 1012.65 1012.66 1012.70 1012.69 1012.26 1011.75 1011.78 1011.41 1011.36 1011.27 1011.18 1011.00 1011.04 1011.04 1010.81 1010.85 1010.87 1010.76 1010.95 1011.24 1011.82 1012.32
1020.02 1019.62 1019.16 1018.62 1018.04 1017.42 1016.84 1016.28 1015.62 1015.01 1014.45 1014.01 1013.79 1013.92 1014.05 1013.96 1012.70 1012.14 1012.12 1012.20 1012.40 1012.62 1012.69 1012.61 1012.59 1012.45 1012.32 1011.90 1011.84 1011.63 1011.42 1011.14 1011.28 1011.45 1011.31 1011.33 1011.62 1011.68 1011.21 1010.95 1011.20 1011.12 1011.68 1012.00 1012.30
1020.23 1019.86 1019.27 1018.64 1018.01 1017.35 1016.71 1016.04 1015.32 1014.70 1014.10 1013.71 1013.68 1013.66 1014.01 1013.47 1011.97 1011.97 1012.08 1012.24 1012.34 1012.52 1012.32 1012.52 1012.25 1012.05 1012.05 1011.72 1011.67 1011.42 1011.31 1011.17 1011.24 1011.61 1011.67 1011.85 1012.06 1012.10 1010.87 1010.66 1011.43 1011.58 1011.74 1012.07 1012.36
1020.31 1019.74 1019.19 1018.52 1017.86 1017.16 1016.46 1015.70 1014.97 1014.40 1013.78 1013.51 1013.49 1013.54 1013.47 1012.45 1011.81 1011.98 1012.11 1012.06 1012.22 1012.20 1012.07 1012.00 1012.07 1012.13 1012.03 1011.74 1011.65 1011.48 1011.63 1011.40 1011.42 1011.59 1012.03 1012.30 1012.38 1011.31 1010.78 1010.91 1011.13 1011.68 1011.95 1011.96 1012.22
1020.37 1019.67 1019.04 1018.39 1017.72 1016.87 1016.03 1015.14 1014.36 1014.00 1013.46 1013.27 1013.41 1013.55 1012.76 1011.90 1011.85 1012.03 1012.14 1012.23 1012.07 1012.21 1012.05 1011.81 1011.94 1012.17 1012.19 1012.08 1011.92 1012.01 1012.17 1012.26 1011.45 1011.78 1012.53 1012.84 1011.80 1010.27 1010.01 1010.84 1011.27 1011.53 1012.02 1012.09 1012.13
1020.06 1019.49 1018.86 1018.16 1017.41 1016.58 1015.57 1014.63 1013.75 1013.32 1013.17 1013.27 1013.53 1013.46 1012.56 1011.84 1011.85 1011.74 1011.96 1012.15 1012.06 1012.25 1012.11 1011.90 1011.99 1012.41 1012.52 1012.75 1012.94 1012.68 1012.72 1012.34 1011.96 1011.70 1012.31 1012.90 1011.77 1010.72 1010.22 1010.80 1011.28 1011.59 1011.75 1012.04 1012.15
1020.16 1019.49 1018.78 1017.93 1017.11 1016.04 1014.90 1013.74 1012.86 1013.08 1013.17 1013.26 1013.10 1013.52 1012.25 1011.81 1011.72 1011.76 1011.88 1012.03 1012.10 1012.46 1012.56 1012.31 1012.56 1012.93 1013.10 1013.32 1013.03 1012.83 1012.79 1012.19 1012.03 1012.01 1012.26 1012.83 1011.83 1011.13 1010.78 1011.03 1011.11 1011.48 1011.53 1011.78 1012.05
1020.31 1019.59 1018.82 1017.88 1016.77 1015.42 1014.58 1013.78 1013.46 1013.53 1013.17 1012.61 1012.23 1011.73 1011.32 1011.73 1011.73 1011.90 1011.90 1012.16 1012.27 1012.68 1012.71 1012.62 1012.98 1012.60 1012.51 1012.78 1012.48 1012.39 1012.36 1012.34 1012.08 1011.95 1012.33 1012.47 1011.77 1010.80 1010.61 1010.74 1010.70 1010.90 1011.26 1011.41 1011.63
1020.40 1019.70 1018.81 1017.82 1016.72 1015.40 1014.74 1015.00 1016.01 1016.06 1014.24 1012.21 1011.21 1011.17 1011.05 1011.08 1011.72 1011.96 1011.96 1012.39 1012.45 1012.54 1012.58 1012.89 1012.43 1012.39 1012.43 1012.54 1012.70 1012.69 1012.60 1012.36 1012.34 1012.47 1012.80 1012.49 1011.52 1010.39 1009.94 1009.32 1009.14 1009.83 1010.54 1010.80 1011.34
1020.69 1019.95 1019.11 1017.95 1016.73 1016.08 1016.25 1016.60 1016.27 1015.87 1015.20 1011.70 1010.83 1010.43 1010.77 1011.06 1011.30 1011.64 1012.01 1011.94 1012.15 1012.40 1012.38 1012.26 1011.80 1011.42 1012.03 1012.20 1012.42 1012.46 1012.47 1012.42 1012.63 1012.86 1013.01 1012.95 1011.66 1009.92 1008.26 1008.02 1008.12 1008.48 1008.99 1009.69 1010.41
1020.66 1020.00 1019.28 1018.29 1017.35 1017.15 1016.67 1016.75 1016.26 1016.01 1015.43 1012.20 1010.91 1010.82 1010.92 1011.00 1011.55 1011.39 1011.61 1011.72 1011.82 1011.87 1012.10 1012.03 1011.43 1011.60 1012.04 1012.15 1012.23 1012.43 1012.08 1012.31 1012.90 1013.45 1014.12 1013.35 1012.40 1009.82 1008.19 1007.85 1007.71 1007.99 1008.69 1009.22 1010.02
1020.60 1019.93 1019.27 1018.63 1018.55 1018.05 1017.70 1016.71 1016.14 1016.30 1015.36 1012.21 1011.50 1011.09 1011.00 1011.58 1011.90 1011.90 1011.77 1011.69 1011.80 1011.67 1012.02 1011.77 1011.66 1011.93 1012.12 1012.18 1012.17 1012.43 1012.47 1012.88 1013.46 1014.06 1014.43 1013.93 1013.78 1009.68 1008.37 1007.89 1007.44 1007.88 1008.38 1008.85 1009.62
1020.59 1019.80 1019.16 1018.74 1018.55 1017.83 1017.25 1016.68 1016.47 1017.13 1015.25 1012.84 1012.04 1011.63 1011.67 1011.67 1011.88 1012.12 1012.13 1012.08 1011.98 1011.96 1011.98 1012.28 1012.25 1012.10 1012.19 1012.60 1012.54 1012.83 1013.28 1013.91 1014.51 1015.27 1015.61 1013.72 1012.90 1010.05 1008.08 1006.74 1006.73 1007.47 1008.05 1008.51 1009.31
1020.52 1019.80 1019.13 1018.81 1018.74 1017.76 1017.41 1017.13 1017.68 1017.72 1014.99 1013.86 1012.78 1012.21 1012.07 1011.97 1011.94 1012.03 1012.41 1012.48 1012.33 1012.52 1012.55 1012.70 1012.63 1012.60 1012.56 1013.13 1013.37 1013.48 1014.10 1015.30 1016.42 1016.93 1015.31 1013.58 1012.77 1009.27 1006.66 1006.08 1006.10 1006.82 1007.82 1008.39 1009.11
1020.59 1019.82 1019.22 1018.70 1018.44 1017.98 1017.78 1017.87 1018.73 1017.31 1015.78 1014.36 1013.48 1012.86 1012.67 1011.94 1011.80 1011.98 1012.34 1012.45 1012.28 1012.38 1012.58 1012.64 1013.20 1012.71 1012.62 1012.69 1012.96 1013.84 1014.14 1014.61 1015.57 1016.02 1015.13 1013.84 1011.60 1007.77 1006.10 1005.65 1005.70 1006.41 1007.51 1008.50 1009.32
1020.68 1020.07 1019.65 1019.01 1018.41 1018.14 1018.36 1018.52 1017.81 1016.89 1015.74 1014.94 1014.17 1013.96 1013.39 1012.54 1012.23 1012.05 1012.12 1011.67 1011.08 1011.64 1012.50 1012.38 1012.72 1012.91 1012.91 1012.85 1012.92 1013.86 1014.19 1014.07 1015.05 1015.91 1015.39 1012.84 1010.16 1007.28 1006.33 1006.39 1006.48 1007.01 1007.86 1008.65 1009.17
1021.18 1020.59 1019.84 1019.22 1018.62 1018.56 1018.90 1018.66 1017.55 1016.19 1015.63 1015.10 1015.24 1014.73 1014.58 1013.69 1013.42 1012.75 1012.02 1010.49 1010.34 1010.00 1010.65 1011.49 1012.71 1013.41 1013.47 1013.36 1013.47 1013.42 1013.70 1014.32 1015.14 1015.60 1014.83 1012.24 1010.10 1007.63 1006.74 1006.57 1006.90 1007.36 1008.00 1008.53 1008.94
1021.48 1021.14 1019.76 1019.16 1018.95 1019.49 1019.59 1018.96 1017.75 1016.57 1016.40 1016.05 1015.47 1015.25 1014.95 1014.78 1014.04 1013.33 1011.81 1010.25 1009.46 1009.64 1010.27 1011.03 1011.71 1013.82 1013.72 1013.26 1012.94 1013.65 1013.56 1013.81 1014.08 1014.05 1013.49 1012.29 1008.74 1005.92 1005.49 1005.70 1006.47 1007.12 1007.59 1008.27 1008.45
1022.08 1022.26 1019.91 1019.71 1020.40 1020.62 1020.68 1019.84 1018.95 1018.20 1017.21 1016.64 1016.23 1015.75 1015.43 1015.04 1014.26 1013.45 1012.19 1010.85 1009.71 1009.57 1010.57 1010.80 1011.62 1013.00 1012.86 1012.48 1012.56 1012.59 1012.63 1012.79 1013.78 1013.63 1012.97 1011.99 1008.12 1005.71 1005.47 1004.86 1005.69 1006.71 1007.51 1007.98 1008.33
1022.75 1022.01 1020.26 1020.28 1021.52 1022.21 1021.64 1020.98 1020.27 1019.84 1019.45 1018.25 1017.33 1016.42 1015.98 1015.66 1015.04 1013.14 1011.88 1011.12 1010.69 1010.19 1010.27 1010.57 1011.71 1013.02 1013.14 1013.12 1012.80 1012.45 1012.20 1012.30 1012.51 1012.94 1012.21 1011.69 1007.97 1006.22 1005.83 1005.50 1005.90 1006.81 1007.73 1008.05 1008.59
1022.89 1022.82 1021.86 1021.44 1021.78 1022.22 1022.49 1021.90 1021.19 1020.24 1019.65 1019.68 1018.87 1017.76 1017.58 1016.25 1015.44 1014.20 1012.55 1011.48 1011.60 1011.12 1010.77 1010.64 1011.33 1011.69 1011.86 1011.31 1011.60 1012.10 1011.58 1011.65 1011.96 1012.27 1011.73 1009.55 1008.53 1006.91 1006.59 1006.55 1006.75 1007.34 1007.83 1008.20 1008.72
1022.77 1022.81 1022.43 1022.70 1022.61 1022.55 1022.39 1021.94 1021.27 1020.73 1019.95 1019.52 1019.19 1019.14 1019.51 1018.21 1016.50 1015.14 1014.65 1013.51 1012.69 1011.95 1011.74 1011.51 1011.62 1011.84 1011.63 1011.37 1011.26 1011.06 1010.99 1011.08 1010.95 1010.74 1010.87 1009.54 1008.63 1007.31 1006.79 1006.80 1007.14 1007.42 1007.94 1008.44 1008.78
1022.37 1022.44 1022.15 1021.95 1021.94 1022.02 1021.94 1021.44 1020.63 1020.32 1020.14 1019.48 1019.35 1018.73 1019.00 1019.08 1018.68 1017.07 1016.71 1016.06 1014.26 1012.57 1012.23 1011.89 1011.80 1012.14 1011.71 1011.20 1011.10 1010.69 1010.21 1010.18 1010.18 1010.16 1009.67 1009.19 1008.03 1006.67 1006.16 1006.59 1007.14 1007.31 1007.91 1008.25 1008.43
1021.48 1021.28 1021.34 1020.71 1021.04 1021.33 1020.83 1020.34 1019.96 1020.09 1019.84 1019.31 1019.16 1018.70 1018.18 1017.73 1017.62 1017.65 1017.05 1016.54 1015.63 1014.81 1013.29 1012.21 1011.79 1012.05 1011.87 1011.17 1011.03 1010.00 1007.28 1007.87 1007.99 1008.30 1008.22 1007.89 1006.06 1006.28 1005.85 1005.99 1006.39 1006.79 1007.73 1007.69 1007.73
Wind_Speed
13 13 15 15 14 14 14 14 14 14 15 14 14 13 12 12 12 2 5 3 6 4 2 4 3 3 1 3 3 3 2 4 6 8 8 3 3 4 4 6 3 4 4 6 11
18 17 18 19 18 18 18 18 16 15 16 15 13 12 12 11 4 6 5 8 7 4 2 3 4 4 1 5 3 5 5 7 5 3 1 1 5 2 2 3 3 5 5 7 9
18 18 18 19 19 19 19 18 17 16 16 15 13 10 10 7 3 4 5 7 6 4 2 3 4 5 4 2 5 5 5 9 3 1 3 2 2 1 4 3 6 9 12 9 6
19 20 20 20 20 20 21 21 20 18 18 17 12 8 7 2 4 3 5 4 5 2 2 3 3 4 6 6 7 3 6 12 4 0 1 2 5 4 4 6 5 4 13 9 9
21 22 21 22 22 22 22 22 22 20 20 17 9 4 2 2 8 4 3 4 3 5 4 3 3 4 4 5 6 10 7 5 5 4 1 2 3 5 7 9 3 8 8 9 8
21 22 22 23 23 24 24 24 24 22 21 12 4 3 1 3 3 5 5 4 3 5 5 4 3 5 5 4 7 1 3 6 4 6 3 3 4 1 7 12 8 8 10 9 9
21 22 23 24 24 24 25 25 24 22 17 10 4 3 2 10 5 4 5 3 1 2 2 4 1 1 3 3 2 2 2 6 4 5 1 5 9 14 12 5 9 11 9 9 10
21 22 23 24 25 25 26 28 27 24 11 3 7 3 6 1 2 4 3 1 1 3 2 2 3 1 2 3 3 3 2 1 4 10 4 7 11 8 9 11 9 9 9 9 9
20 22 24 25 26 27 28 28 27 17 3 5 3 3 7 0 2 4 3 3 5 0 1 1 2 2 2 2 3 2 4 7 6 9 7 7 7 4 5 8 9 8 8 8 8
24 25 27 28 29 30 28 27 20 2 2 5 4 2 3 3 3 3 0 5 3 3 2 2 2 2 1 4 6 6 5 5 7 7 5 6 15 11 8 4 10 10 9 9 9
25 26 28 30 31 28 13 6 6 3 2 7 5 5 6 4 2 3 4 4 4 2 5 3 4 11 10 7 6 1 3 3 0 2 4 9 13 15 8 9 11 10 9 10 10
25 26 29 31 33 21 5 5 5 3 11 12 18 14 4 7 4 5 4 6 5 5 4 3 11 7 8 9 10 11 3 5 0 2 2 2 14 13 9 12 16 14 10 11 8
25 26 28 30 28 6 5 8 8 7 4 7 5 2 4 6 4 7 10 5 5 6 7 7 4 2 10 5 7 7 7 4 5 4 4 4 10 7 6 11 7 13 13 10 15
25 26 28 29 7 10 2 12 9 3 4 7 2 3 3 3 2 1 7 4 4 9 6 8 5 5 3 5 6 5 3 5 4 3 4 3 7 7 4 6 6 8 10 11 13
25 27 27 17 7 5 8 11 9 1 6 4 2 3 1 3 2 2 1 2 4 4 5 5 5 4 4 4 6 5 2 4 2 2 4 3 3 10 3 7 9 10 9 9 11
26 28 28 6 4 4 11 12 1 8 8 4 2 2 3 1 2 1 0 1 2 1 1 0 1 2 3 3 2 6 5 6 5 3 2 9 8 7 6 7 3 5 8 9 11
27 28 16 4 4 9 6 4 5 5 6 6 2 4 4 6 5 6 5 5 7 5 5 1 3 2 2 5 6 1 5 3 5 3 9 4 4 11 6 6 7 11 9 9 12
26 25 12 3 5 6 3 1 3 6 7 5 3 3 5 6 5 8 6 4 8 1 2 7 5 9 6 5 8 6 5 7 9 5 5 5 8 9 5 4 5 10 10 9 9
22 5 5 7 6 3 1 2 9 8 4 4 6 2 6 4 4 6 9 6 10 16 9 5 4 2 3 2 3 6 5 3 5 1 5 5 8 8 3 3 6 9 9 10 10
3 4 3 7 5 2 0 5 5 3 3 4 2 5 3 4 2 5 6 6 6 13 5 6 1 1 2 0 1 2 1 3 2 2 4 5 6 7 7 10 8 9 10 9 9
4 5 4 11 4 2 3 6 5 7 12 8 3 5 5 4 5 4 6 7 8 4 14 5 4 1 2 7 9 2 2 1 2 5 6 2 8 8 7 13 14 11 9 10 10
2 3 6 5 5 2 2 5 16 11 17 5 5 6 8 5 4 5 7 6 2 7 9 5 5 6 9 1 2 4 6 6 5 6 4 3 9 2 6 11 14 11 9 7 7
0 4 5 5 2 3 7 6 9 9 10 10 10 8 6 5 8 7 5 3 5 4 9 8 2 3 6 4 1 6 6 4 3 4 9 4 8 4 5 5 6 10 8 8 7
2 4 6 4 1 4 1 3 4 5 7 7 13 9 16 10 9 8 5 1 5 4 3 1 4 8 10 4 5 5 7 13 9 7 6 15 6 5 4 3 5 8 9 9 9
3 4 6 4 5 2 3 3 8 4 4 2 5 9 11 7 12 5 9 11 5 6 4 3 5 5 7 5 4 5 5 12 19 16 14 8 17 16 7 8 9 7 6 6 8
2 2 3 3 2 6 6 6 10 5 5 4 4 17 3 6 10 7 13 5 11 2 6 2 4 3 4 5 7 11 14 10 18 17 18 12 12 9 6 4 3 9 9 9 9
3 3 4 7 5 7 10 8 8 2 6 11 9 9 15 14 13 15 16 16 20 15 6 7 7 5 5 3 5 9 22 23 18 8 12 19 18 8 8 10 13 8 9 13 11
Wind_Direction
3 5 360 353 347 345 342 343 341 340 337 333 329 324 322 318 313 214 233 207 156 130 51 302 226 255 302 242 220 168 210 220 230 241 254 264 105 356 141 125 65 33 133 165 149
13 10 6 354 350 346 342 341 336 332 336 329 325 323 319 317 265 228 212 143 140 146 160 202 216 201 209 201 241 169 195 226 230 234 353 333 92 148 83 139 119 69 67 113 132
10 7 2 352 346 346 344 340 333 328 326 323 317 315 314 318 292 218 135 145 149 157 241 290 260 191 215 216 220 201 205 234 326 134 34 359 29 86 132 253 211 179 171 163 158
6 3 357 351 346 344 339 335 331 322 315 317 309 303 312 269 288 160 153 145 146 164 250 256 235 192 189 215 216 229 229 243 231 136 96 79 319 349 190 215 152 136 177 160 165
3 359 353 347 343 339 335 330 324 321 319 317 301 287 340 229 257 164 161 159 155 153 210 217 213 187 187 204 238 222 243 249 115 145 141 16 282 248 261 259 208 121 139 168 168
352 348 343 340 337 334 331 327 323 322 323 325 280 157 169 236 128 138 146 148 220 192 189 210 227 229 281 216 203 11 220 257 227 164 164 163 267 67 249 237 193 170 168 172 180
352 348 344 338 332 330 325 321 317 320 315 312 215 183 233 243 130 138 169 161 274 209 224 213 38 351 297 288 303 98 356 337 234 173 127 94 283 237 219 210 209 192 194 190 199
352 348 345 342 338 330 323 317 312 315 298 303 175 206 242 58 152 151 150 138 210 256 227 32 73 257 70 295 15 127 74 218 249 161 181 120 264 278 238 181 203 190 196 200 215
349 345 342 338 334 328 323 311 307 297 233 163 152 193 272 100 137 170 185 180 130 73 332 79 82 165 46 92 9 293 201 210 291 180 135 179 265 278 90 162 205 215 215 205 202
356 351 345 342 335 326 316 303 291 212 205 203 264 4 249 209 152 153 229 161 142 132 79 102 97 136 138 140 209 200 222 243 204 211 144 197 258 271 281 249 213 215 215 197 182
346 344 342 338 334 328 333 347 12 22 336 212 198 255 144 125 97 192 201 159 135 182 165 204 153 209 195 203 249 57 206 309 148 321 148 227 262 259 252 236 226 222 203 193 184
345 341 340 337 334 330 360 47 36 249 301 248 251 256 212 174 128 192 134 160 176 187 164 105 238 219 208 210 227 260 268 261 195 196 185 252 268 265 243 240 216 201 206 194 169
353 349 344 336 326 20 1 39 332 355 267 293 236 199 168 139 213 206 157 180 186 190 197 165 213 186 197 207 195 225 203 215 235 186 251 16 289 271 269 236 205 201 199 187 172
348 347 345 340 20 327 70 347 332 331 326 277 354 16 72 107 267 63 199 176 227 207 195 227 224 155 187 218 154 222 236 172 166 100 228 134 274 297 249 245 211 178 184 193 165
344 344 342 343 299 335 324 324 315 281 28 282 91 294 163 162 131 14 12 33 207 216 149 235 156 157 168 202 180 219 126 135 128 152 53 242 76 266 252 249 228 213 198 199 171
343 341 341 348 308 276 331 314 50 44 266 307 122 145 117 250 184 131 87 357 249 271 9 139 271 159 159 59 337 143 71 43 45 73 356 227 165 274 210 221 232 186 202 187 160
340 338 337 320 289 306 332 320 56 132 319 294 260 169 216 193 197 165 167 189 182 142 224 301 216 142 135 85 3 62 104 14 354 3 219 324 156 245 250 237 208 178 179 165 152
339 334 313 293 309 351 335 104 128 236 245 317 297 240 225 162 228 183 163 224 242 221 124 179 277 169 181 200 181 188 178 166 198 202 248 359 231 248 228 222 174 150 153 150 153
338 321 327 342 334 349 317 185 204 212 230 297 339 95 298 290 208 155 204 210 202 183 183 186 251 14 41 68 131 188 206 192 100 44 62 221 275 290 193 110 107 149 155 173 171
332 345 292 306 338 357 117 242 236 259 19 13 284 155 237 276 254 186 202 226 213 181 205 181 50 320 281 49 64 182 205 104 1 176 253 275 271 241 211 201 182 165 181 185 180
21 359 270 353 20 15 230 231 305 319 12 348 305 287 248 272 205 252 243 285 189 171 176 155 123 197 119 202 184 139 216 219 151 166 178 188 255 224 222 193 190 197 190 191 181
30 356 282 30 44 294 284 312 356 2 343 294 258 274 250 226 246 231 240 243 81 137 171 193 152 202 206 197 210 201 207 184 156 238 219 174 262 340 305 201 179 188 197 200 182
269 248 297 90 92 309 321 326 318 21 339 335 310 335 345 319 302 215 221 328 321 167 167 184 232 79 329 352 295 216 196 185 117 95 218 180 261 329 345 75 157 162 185 184 172
2 323 317 32 168 146 99 266 321 310 319 347 305 294 356 329 263 278 260 173 332 326 296 198 158 170 193 168 133 199 208 197 179 197 197 228 283 279 238 164 138 164 172 177 183
194 239 199 268 301 193 123 245 281 288 235 352 314 339 339 296 305 279 348 331 243 232 237 184 213 186 240 198 171 201 207 205 213 215 204 214 216 248 211 208 206 198 192 184 200
231 212 283 232 218 222 238 231 252 249 215 245 219 292 266 290 310 315 333 349 301 301 186 170 217 194 288 210 203 248 242 224 224 232 246 266 269 237 246 229 209 217 192 212 222
213 255 220 237 235 221 213 218 242 131 272 251 257 274 280 279 268 276 269 264 255 270 271 189 157 140 255 238 122 276 233 218 224 199 199 225 235 242 263 208 217 216 210 223 227